Time,TemperatureF,DewpointF,PressureIn,WindDirection,WindDirectionDegrees,WindSpeedMPH,WindSpeedGustMPH,Humidity,HourlyPrecipIn,Conditions,Clouds,dailyrainin,SoftwareType,DateUTC
2013-10-11 00:00:00,74.0,69.2,29.95,NNE,13,1.2,0.0,85,0.00,CLR,,0.00,WeatherDisplay:10.37,2013-10-11 04:00:00,
2013-10-11 00:01:00,74.0,69.2,29.95,NNE,13,1.2,1.2,85,0.00,CLR,,0.00,WeatherDisplay:10.37,2013-10-11 04:01:00,
2013-10-11 00:02:00,73.9,69.1,29.95,NNE,13,1.2,1.2,85,0.00,CLR,,0.00,WeatherDisplay:10.37,2013-10-11 04:02:00,
2013-10-11 00:03:00,73.9,69.1,29.95,NNE,13,1.2,0.0,85,0.00,CLR,,0.00,WeatherDisplay:10.37,2013-10-11 04:03:00,
2013-10-11 00:08:00,73.7,69.2,29.95,NNE,13,1.2,1.2,86,0.00,CLR,,0.00,WeatherDisplay:10.37,2013-10-11 04:08:00,
2013-10-11 00:13:00,73.5,69.1,29.95,NNE,12,1.2,1.2,86,0.00,CLR,,0.00,WeatherDisplay:10.37,2013-10-11 04:13:00,
2013-10-11 00:18:00,73.3,68.9,29.95,NNE,12,2.3,2.3,86,0.00,CLR,,0.00,WeatherDisplay:10.37,2013-10-11 04:18:00,
2013-10-11 00:23:00,73.1,68.7,29.94,NNE,12,0.0,0.0,86,0.00,CLR,,0.00,WeatherDisplay:10.37,2013-10-11 04:23:00,
2013-10-11 00:28:00,73.0,68.6,29.94,NNE,12,0.0,0.0,86,0.00,CLR,,0.00,WeatherDisplay:10.37,2013-10-11 04:28:00,
2013-10-11 00:33:00,72.9,68.8,29.94,NNE,12,0.0,0.0,87,0.00,CLR,,0.00,WeatherDisplay:10.37,2013-10-11 04:33:00,
2013-10-11 00:38:00,72.9,69.1,29.94,NNE,12,1.2,1.2,88,0.00,CLR,,0.00,WeatherDisplay:10.37,2013-10-11 04:38:00,
2013-10-11 00:43:00,72.8,69.7,29.94,NNW,348,3.0,3.0,90,0.00,CLR,,0.00,WeatherDisplay:10.37,2013-10-11 04:43:00,
2013-10-11 00:48:00,72.6,69.5,29.94,NNW,339,3.5,3.5,90,0.00,CLR,,0.00,WeatherDisplay:10.37,2013-10-11 04:48:00,
2013-10-11 00:53:00,72.4,69.3,29.94,NNW,339,2.3,2.3,90,0.00,CLR,,0.00,WeatherDisplay:10.37,2013-10-11 04:53:00,
2013-10-11 00:58:00,72.3,69.5,29.94,NNW,339,2.3,2.3,91,0.00,CLR,,0.00,WeatherDisplay:10.37,2013-10-11 04:58:00,
2013-10-11 01:03:00,72.1,69.3,29.94,NNW,339,2.3,2.3,91,0.00,CLR,,0.00,WeatherDisplay:10.37,2013-10-11 05:03:00,
2013-10-11 01:08:00,72.0,69.2,29.93,North,351,1.2,1.2,91,0.00,CLR,,0.00,WeatherDisplay:10.37,2013-10-11 05:08:00,
2013-10-11 01:13:00,71.9,69.1,29.93,North,355,3.5,3.5,91,0.00,CLR,,0.00,WeatherDisplay:10.37,2013-10-11 05:13:00,
2013-10-11 01:18:00,71.8,69.0,29.93,North,350,3.5,3.5,91,0.00,CLR,,0.00,WeatherDisplay:10.37,2013-10-11 05:18:00,
2013-10-11 01:23:00,71.7,68.9,29.93,North,360,2.3,2.3,91,0.00,CLR,,0.00,WeatherDisplay:10.37,2013-10-11 05:23:00,
2013-10-11 01:28:00,71.6,68.8,29.93,North,355,2.3,2.3,91,0.00,CLR,,0.00,WeatherDisplay:10.37,2013-10-11 05:28:00,
2013-10-11 01:33:00,71.6,68.8,29.93,North,355,2.3,2.3,91,0.00,CLR,,0.00,WeatherDisplay:10.37,2013-10-11 05:33:00,
2013-10-11 01:38:00,71.5,68.7,29.93,North,355,2.3,2.3,91,0.00,CLR,,0.00,WeatherDisplay:10.37,2013-10-11 05:38:00,
2013-10-11 01:43:00,71.5,68.7,29.92,North,349,3.5,3.5,91,0.00,CLR,,0.00,WeatherDisplay:10.37,2013-10-11 05:43:00,
2013-10-11 01:48:00,71.4,68.6,29.93,NNW,346,3.5,3.5,91,0.00,CLR,,0.00,WeatherDisplay:10.37,2013-10-11 05:48:00,
2013-10-11 01:53:00,71.4,68.6,29.92,North,350,1.2,1.2,91,0.00,CLR,,0.00,WeatherDisplay:10.37,2013-10-11 05:53:00,
2013-10-11 01:58:00,71.3,68.2,29.93,North,355,1.2,1.2,90,0.00,CLR,,0.00,WeatherDisplay:10.37,2013-10-11 05:58:00,
2013-10-11 02:03:00,71.2,68.1,29.93,North,355,1.2,1.2,90,0.00,CLR,,0.00,WeatherDisplay:10.37,2013-10-11 06:03:00,
2013-10-11 02:08:00,71.2,68.1,29.92,North,355,1.2,1.2,90,0.00,CLR,,0.00,WeatherDisplay:10.37,2013-10-11 06:08:00,
2013-10-11 02:13:00,71.1,68.3,29.92,North,355,2.3,2.3,91,0.00,CLR,,0.00,WeatherDisplay:10.37,2013-10-11 06:13:00,
2013-10-11 02:18:00,71.1,68.3,29.92,North,355,1.2,1.2,91,0.00,CLR,,0.00,WeatherDisplay:10.37,2013-10-11 06:18:00,
2013-10-11 02:23:00,71.0,68.2,29.92,North,355,1.2,1.2,91,0.00,CLR,,0.00,WeatherDisplay:10.37,2013-10-11 06:23:00,
2013-10-11 02:28:00,70.9,68.1,29.92,North,355,2.3,2.3,91,0.00,CLR,,0.00,WeatherDisplay:10.37,2013-10-11 06:28:00,
2013-10-11 02:33:00,70.8,68.0,29.92,North,355,0.0,0.0,91,0.00,CLR,,0.00,WeatherDisplay:10.37,2013-10-11 06:33:00,
2013-10-11 02:38:00,70.7,67.9,29.92,North,355,0.0,0.0,91,0.00,CLR,,0.00,WeatherDisplay:10.37,2013-10-11 06:38:00,
2013-10-11 02:43:00,70.5,67.7,29.92,North,355,0.0,0.0,91,0.00,CLR,,0.00,WeatherDisplay:10.37,2013-10-11 06:43:00,
2013-10-11 02:48:00,70.4,67.6,29.92,North,355,0.0,0.0,91,0.00,CLR,,0.00,WeatherDisplay:10.37,2013-10-11 06:48:00,
2013-10-11 02:53:00,70.3,67.5,29.92,North,355,0.0,0.0,91,0.00,CLR,,0.00,WeatherDisplay:10.37,2013-10-11 06:53:00,
2013-10-11 02:58:00,70.2,67.8,29.91,North,355,0.0,0.0,92,0.00,CLR,,0.00,WeatherDisplay:10.37,2013-10-11 06:58:00,
2013-10-11 03:03:00,70.1,67.7,29.91,North,355,0.0,0.0,92,0.00,CLR,,0.00,WeatherDisplay:10.37,2013-10-11 07:03:00,
2013-10-11 03:08:00,70.1,67.7,29.91,North,355,1.2,1.2,92,0.00,CLR,,0.00,WeatherDisplay:10.37,2013-10-11 07:08:00,
2013-10-11 03:13:00,70.0,67.6,29.92,North,355,0.0,0.0,92,0.00,CLR,,0.00,WeatherDisplay:10.37,2013-10-11 07:13:00,
2013-10-11 03:18:00,70.0,67.6,29.91,North,355,0.0,0.0,92,0.00,CLR,,0.00,WeatherDisplay:10.37,2013-10-11 07:18:00,
2013-10-11 03:23:00,69.9,67.5,29.91,North,355,0.0,0.0,92,0.00,CLR,,0.00,WeatherDisplay:10.37,2013-10-11 07:23:00,
2013-10-11 03:28:00,69.9,67.2,29.91,North,355,0.0,0.0,91,0.00,CLR,,0.00,WeatherDisplay:10.37,2013-10-11 07:28:00,
2013-10-11 03:33:00,69.8,67.4,29.91,North,355,1.2,1.2,92,0.00,CLR,,0.00,WeatherDisplay:10.37,2013-10-11 07:33:00,
2013-10-11 03:38:00,69.9,67.5,29.91,North,355,0.0,0.0,92,0.00,CLR,,0.00,WeatherDisplay:10.37,2013-10-11 07:38:00,
2013-10-11 03:43:00,69.9,67.5,29.91,North,355,2.3,2.3,92,0.00,CLR,,0.00,WeatherDisplay:10.37,2013-10-11 07:43:00,
2013-10-11 03:48:00,69.9,67.5,29.92,North,355,2.3,2.3,92,0.00,CLR,,0.00,WeatherDisplay:10.37,2013-10-11 07:48:00,
2013-10-11 03:53:00,69.9,67.5,29.91,NNW,347,2.3,2.3,92,0.00,CLR,,0.00,WeatherDisplay:10.37,2013-10-11 07:53:00,
2013-10-11 03:58:00,70.0,67.6,29.91,NNW,347,0.0,0.0,92,0.00,CLR,,0.00,WeatherDisplay:10.37,2013-10-11 07:58:00,
2013-10-11 04:03:00,70.0,67.6,29.91,NNW,347,1.2,1.2,92,0.00,CLR,,0.00,WeatherDisplay:10.37,2013-10-11 08:03:00,
2013-10-11 04:08:00,70.0,67.9,29.91,NNW,347,0.0,0.0,93,0.00,CLR,,0.00,WeatherDisplay:10.37,2013-10-11 08:08:00,
2013-10-11 04:13:00,70.1,68.3,29.91,NNW,347,0.0,0.0,94,0.00,CLR,,0.00,WeatherDisplay:10.37,2013-10-11 08:13:00,
2013-10-11 04:18:00,70.2,68.4,29.91,NNW,347,0.0,0.0,94,0.00,CLR,,0.00,WeatherDisplay:10.37,2013-10-11 08:18:00,
2013-10-11 04:23:00,70.1,68.3,29.91,NNW,347,1.2,1.2,94,0.00,CLR,,0.00,WeatherDisplay:10.37,2013-10-11 08:23:00,
2013-10-11 04:28:00,70.1,68.3,29.92,NNW,347,1.2,1.2,94,0.00,CLR,,0.00,WeatherDisplay:10.37,2013-10-11 08:28:00,
2013-10-11 04:33:00,70.1,68.3,29.92,NNW,347,0.0,0.0,94,0.00,CLR,,0.00,WeatherDisplay:10.37,2013-10-11 08:33:00,
2013-10-11 04:38:00,70.0,67.9,29.92,NNW,347,0.0,0.0,93,0.00,CLR,,0.00,WeatherDisplay:10.37,2013-10-11 08:38:00,
2013-10-11 04:43:00,70.0,68.2,29.92,NNW,347,1.2,1.2,94,0.00,CLR,,0.00,WeatherDisplay:10.37,2013-10-11 08:43:00,
2013-10-11 04:48:00,70.1,68.3,29.92,NNW,347,1.2,1.2,94,0.00,CLR,,0.00,WeatherDisplay:10.37,2013-10-11 08:48:00,
2013-10-11 04:53:00,70.0,68.2,29.92,NNW,347,1.2,1.2,94,0.00,CLR,,0.00,WeatherDisplay:10.37,2013-10-11 08:53:00,
2013-10-11 04:58:00,69.9,68.1,29.92,NNW,347,1.2,1.2,94,0.00,CLR,,0.00,WeatherDisplay:10.37,2013-10-11 08:58:00,
2013-10-11 05:03:00,69.8,68.0,29.92,NNW,347,2.3,2.3,94,0.00,CLR,,0.00,WeatherDisplay:10.37,2013-10-11 09:03:00,
2013-10-11 05:08:00,69.8,68.0,29.92,NNW,347,0.0,0.0,94,0.00,CLR,,0.00,WeatherDisplay:10.37,2013-10-11 09:08:00,
2013-10-11 05:13:00,69.8,68.0,29.92,NNW,347,0.0,0.0,94,0.00,CLR,,0.00,WeatherDisplay:10.37,2013-10-11 09:13:00,
2013-10-11 05:18:00,69.8,68.0,29.92,NNW,347,0.0,0.0,94,0.00,CLR,,0.00,WeatherDisplay:10.37,2013-10-11 09:18:00,
2013-10-11 05:23:00,69.9,68.1,29.92,NNW,347,0.0,0.0,94,0.00,CLR,,0.00,WeatherDisplay:10.37,2013-10-11 09:23:00,
2013-10-11 05:28:00,69.9,68.4,29.93,NNW,347,0.0,0.0,95,0.00,CLR,,0.00,WeatherDisplay:10.37,2013-10-11 09:28:00,
2013-10-11 05:33:00,69.9,68.4,29.93,NNW,347,0.0,0.0,95,0.00,CLR,,0.00,WeatherDisplay:10.37,2013-10-11 09:33:00,
2013-10-11 05:38:00,69.8,68.3,29.93,NNW,347,1.2,1.2,95,0.00,CLR,,0.00,WeatherDisplay:10.37,2013-10-11 09:38:00,
2013-10-11 05:43:00,69.7,68.2,29.93,NNW,347,0.0,0.0,95,0.00,CLR,,0.00,WeatherDisplay:10.37,2013-10-11 09:43:00,
2013-10-11 05:48:00,69.7,68.2,29.93,NNW,347,1.2,1.2,95,0.00,CLR,,0.00,WeatherDisplay:10.37,2013-10-11 09:48:00,
2013-10-11 05:53:00,69.7,68.2,29.93,NNW,347,1.2,1.2,95,0.00,CLR,,0.00,WeatherDisplay:10.37,2013-10-11 09:53:00,
2013-10-11 05:58:00,69.6,68.1,29.93,NNW,347,0.0,0.0,95,0.00,CLR,,0.00,WeatherDisplay:10.37,2013-10-11 09:58:00,
2013-10-11 06:03:00,69.6,68.1,29.94,NNW,347,1.2,1.2,95,0.00,CLR,,0.00,WeatherDisplay:10.37,2013-10-11 10:03:00,
2013-10-11 06:08:00,69.6,68.1,29.94,NNW,347,0.0,0.0,95,0.00,CLR,,0.00,WeatherDisplay:10.37,2013-10-11 10:08:00,
2013-10-11 06:13:00,69.6,68.1,29.93,NNW,347,0.0,0.0,95,0.00,CLR,,0.00,WeatherDisplay:10.37,2013-10-11 10:13:00,
2013-10-11 06:18:00,69.7,68.2,29.94,NNW,347,0.0,0.0,95,0.00,CLR,,0.00,WeatherDisplay:10.37,2013-10-11 10:18:00,
2013-10-11 06:23:00,69.6,68.1,29.94,NNW,347,0.0,0.0,95,0.00,CLR,,0.00,WeatherDisplay:10.37,2013-10-11 10:23:00,
2013-10-11 06:28:00,69.5,68.0,29.93,NNW,347,0.0,0.0,95,0.00,CLR,,0.00,WeatherDisplay:10.37,2013-10-11 10:28:00,
2013-10-11 06:33:00,69.4,67.9,29.94,NNW,347,0.0,0.0,95,0.00,CLR,,0.00,WeatherDisplay:10.37,2013-10-11 10:33:00,
2013-10-11 06:38:00,69.3,67.8,29.94,NNW,347,1.2,1.2,95,0.00,CLR,,0.00,WeatherDisplay:10.37,2013-10-11 10:38:00,
2013-10-11 06:43:00,69.2,67.7,29.94,NNW,347,1.2,1.2,95,0.00,CLR,,0.00,WeatherDisplay:10.37,2013-10-11 10:43:00,
2013-10-11 06:48:00,69.1,67.6,29.94,NNW,347,0.0,0.0,95,0.00,CLR,,0.00,WeatherDisplay:10.37,2013-10-11 10:48:00,
2013-10-11 06:53:00,69.0,67.5,29.94,NNW,347,0.0,0.0,95,0.00,CLR,,0.00,WeatherDisplay:10.37,2013-10-11 10:53:00,
2013-10-11 06:58:00,69.0,67.5,29.94,NNW,347,0.0,0.0,95,0.00,CLR,,0.00,WeatherDisplay:10.37,2013-10-11 10:58:00,
2013-10-11 07:03:00,69.0,67.5,29.95,NNW,347,0.0,0.0,95,0.00,CLR,,0.00,WeatherDisplay:10.37,2013-10-11 11:03:00,
2013-10-11 07:08:00,69.1,67.6,29.95,NNW,347,0.0,0.0,95,0.00,CLR,,0.00,WeatherDisplay:10.37,2013-10-11 11:08:00,
2013-10-11 07:13:00,69.1,67.6,29.95,NNW,347,0.0,0.0,95,0.00,CLR,,0.00,WeatherDisplay:10.37,2013-10-11 11:13:00,
2013-10-11 07:18:00,69.1,67.6,29.95,NNW,347,0.0,0.0,95,0.00,CLR,,0.00,WeatherDisplay:10.37,2013-10-11 11:18:00,
2013-10-11 07:23:00,69.2,67.7,29.95,NNW,347,0.0,0.0,95,0.00,CLR,,0.00,WeatherDisplay:10.37,2013-10-11 11:23:00,
2013-10-11 07:28:00,69.3,67.8,29.96,NNW,347,0.0,0.0,95,0.00,CLR,,0.00,WeatherDisplay:10.37,2013-10-11 11:28:00,
2013-10-11 07:33:00,69.4,68.2,29.95,NNW,347,0.0,0.0,96,0.00,CLR,,0.00,WeatherDisplay:10.37,2013-10-11 11:33:00,
2013-10-11 07:38:00,69.5,68.3,29.96,NNW,347,0.0,0.0,96,0.00,CLR,,0.00,WeatherDisplay:10.37,2013-10-11 11:38:00,
2013-10-11 07:43:00,69.7,68.5,29.96,NNW,347,0.0,0.0,96,0.00,CLR,,0.00,WeatherDisplay:10.37,2013-10-11 11:43:00,
2013-10-11 07:48:00,70.1,68.9,29.96,NNW,347,0.0,0.0,96,0.00,CLR,,0.00,WeatherDisplay:10.37,2013-10-11 11:48:00,
2013-10-11 07:53:00,70.4,69.2,29.96,NNW,347,0.0,0.0,96,0.00,CLR,,0.00,WeatherDisplay:10.37,2013-10-11 11:53:00,
2013-10-11 07:58:00,70.8,69.6,29.96,NNW,347,0.0,0.0,96,0.00,CLR,,0.00,WeatherDisplay:10.37,2013-10-11 11:58:00,
2013-10-11 08:03:00,71.1,69.6,29.96,NNW,347,0.0,0.0,95,0.00,CLR,,0.00,WeatherDisplay:10.37,2013-10-11 12:03:00,
2013-10-11 08:08:00,71.6,70.1,29.97,NNW,347,1.2,1.2,95,0.00,CLR,,0.00,WeatherDisplay:10.37,2013-10-11 12:08:00,
2013-10-11 08:13:00,72.1,70.3,29.97,NNW,347,0.0,0.0,94,0.00,CLR,,0.00,WeatherDisplay:10.37,2013-10-11 12:13:00,
2013-10-11 08:18:00,72.7,70.2,29.97,NNW,347,0.0,0.0,92,0.00,CLR,,0.00,WeatherDisplay:10.37,2013-10-11 12:18:00,
2013-10-11 08:23:00,73.5,70.7,29.97,NNW,347,1.2,1.2,91,0.00,CLR,,0.00,WeatherDisplay:10.37,2013-10-11 12:23:00,
2013-10-11 08:28:00,74.2,70.7,29.97,NNW,347,2.3,2.3,89,0.00,CLR,,0.00,WeatherDisplay:10.37,2013-10-11 12:28:00,
2013-10-11 08:33:00,75.1,71.3,29.97,NNW,347,0.0,0.0,88,0.00,CLR,,0.00,WeatherDisplay:10.37,2013-10-11 12:33:00,
2013-10-11 08:38:00,75.9,70.7,29.98,North,355,1.2,1.2,84,0.00,CLR,,0.00,WeatherDisplay:10.37,2013-10-11 12:38:00,
2013-10-11 08:43:00,76.6,70.7,29.98,NNW,346,2.3,2.3,82,0.00,CLR,,0.00,WeatherDisplay:10.37,2013-10-11 12:43:00,
2013-10-11 08:48:00,77.1,71.2,29.98,North,350,1.2,1.2,82,0.00,CLR,,0.00,WeatherDisplay:10.37,2013-10-11 12:48:00,
2013-10-11 08:53:00,77.7,71.0,29.98,North,360,1.2,0.0,80,0.00,CLR,,0.00,WeatherDisplay:10.37,2013-10-11 12:53:00,
2013-10-11 08:58:00,78.3,71.2,29.98,North,360,1.2,1.2,79,0.00,CLR,,0.00,WeatherDisplay:10.37,2013-10-11 12:58:00,
2013-10-11 09:03:00,78.8,71.4,29.99,North,355,2.3,2.3,78,0.00,CLR,,0.00,WeatherDisplay:10.37,2013-10-11 13:03:00,
2013-10-11 09:08:00,79.3,71.5,29.99,North,355,3.5,3.5,77,0.00,CLR,,0.00,WeatherDisplay:10.37,2013-10-11 13:08:00,
2013-10-11 09:13:00,79.8,71.9,29.99,North,360,1.2,1.2,77,0.00,CLR,,0.00,WeatherDisplay:10.37,2013-10-11 13:13:00,
2013-10-11 09:18:00,80.3,71.3,29.98,NE,38,5.0,5.0,74,0.00,CLR,,0.00,WeatherDisplay:10.37,2013-10-11 13:18:00,
2013-10-11 09:23:00,80.8,71.7,29.98,NE,38,1.2,0.0,74,0.00,CLR,,0.00,WeatherDisplay:10.37,2013-10-11 13:23:00,
2013-10-11 09:28:00,81.2,71.3,29.98,NE,36,3.5,3.5,72,0.00,CLR,,0.00,WeatherDisplay:10.37,2013-10-11 13:28:00,
2013-10-11 09:33:00,81.3,71.0,29.98,NE,40,5.0,5.0,71,0.00,CLR,,0.00,WeatherDisplay:10.37,2013-10-11 13:33:00,
2013-10-11 09:38:00,81.3,70.6,29.98,NE,55,4.0,4.0,70,0.00,CLR,,0.00,WeatherDisplay:10.37,2013-10-11 13:38:00,
2013-10-11 09:43:00,81.5,71.2,29.98,NNE,12,4.6,4.6,71,0.00,CLR,,0.00,WeatherDisplay:10.37,2013-10-11 13:43:00,
2013-10-11 09:48:00,81.7,70.5,29.98,NNE,17,5.8,5.8,69,0.00,CLR,,0.00,WeatherDisplay:10.37,2013-10-11 13:48:00,
2013-10-11 09:53:00,81.9,70.3,29.99,NNE,32,6.9,6.9,68,0.00,CLR,,0.00,WeatherDisplay:10.37,2013-10-11 13:53:00,
2013-10-11 09:58:00,81.8,69.8,29.99,NE,34,7.0,7.0,67,0.00,CLR,,0.00,WeatherDisplay:10.37,2013-10-11 13:58:00,
2013-10-11 10:03:00,81.3,69.3,29.99,ENE,71,11.5,11.5,67,0.00,CLR,,0.00,WeatherDisplay:10.37,2013-10-11 14:03:00,
2013-10-11 10:08:00,81.1,69.1,29.98,ENE,76,10.4,10.4,67,0.00,CLR,,0.00,WeatherDisplay:10.37,2013-10-11 14:08:00,
2013-10-11 10:13:00,81.2,69.2,29.99,NE,49,9.2,9.2,67,0.00,CLR,,0.00,WeatherDisplay:10.37,2013-10-11 14:13:00,
2013-10-11 10:18:00,81.4,68.5,29.99,ENE,58,5.0,5.0,65,0.00,CLR,,0.00,WeatherDisplay:10.37,2013-10-11 14:18:00,
2013-10-11 10:23:00,81.5,68.6,29.99,ENE,67,9.2,9.2,65,0.00,CLR,,0.00,WeatherDisplay:10.37,2013-10-11 14:23:00,
2013-10-11 10:28:00,81.8,68.9,29.99,ENE,61,3.5,3.5,65,0.00,CLR,,0.00,WeatherDisplay:10.37,2013-10-11 14:28:00,
2013-10-11 10:33:00,82.5,69.1,29.99,NNE,23,9.2,9.2,64,0.00,CLR,,0.00,WeatherDisplay:10.37,2013-10-11 14:33:00,
2013-10-11 10:38:00,82.8,68.4,29.98,ESE,105,5.8,5.8,62,0.00,CLR,,0.00,WeatherDisplay:10.37,2013-10-11 14:38:00,
2013-10-11 10:43:00,83.0,68.6,29.99,NE,53,10.4,10.4,62,0.00,CLR,,0.00,WeatherDisplay:10.37,2013-10-11 14:43:00,
2013-10-11 10:48:00,82.6,67.8,29.99,ENE,64,5.8,5.8,61,0.00,CLR,,0.00,WeatherDisplay:10.37,2013-10-11 14:48:00,
2013-10-11 10:53:00,82.8,68.4,29.98,NE,40,10.4,10.4,62,0.00,CLR,,0.00,WeatherDisplay:10.37,2013-10-11 14:53:00,
2013-10-11 10:58:00,83.2,68.3,29.99,NE,35,11.5,11.5,61,0.00,CLR,,0.00,WeatherDisplay:10.37,2013-10-11 14:58:00,
2013-10-11 11:03:00,83.4,66.6,29.99,ENE,78,6.9,6.9,57,0.00,CLR,,0.00,WeatherDisplay:10.37,2013-10-11 15:03:00,
2013-10-11 11:08:00,83.3,67.5,29.99,ENE,61,11.5,11.5,59,0.00,CLR,,0.00,WeatherDisplay:10.37,2013-10-11 15:08:00,
2013-10-11 11:13:00,82.9,68.1,29.99,North,11,10.4,10.4,61,0.00,CLR,,0.00,WeatherDisplay:10.37,2013-10-11 15:13:00,
2013-10-11 11:18:00,82.9,67.1,29.99,NE,47,6.9,6.9,59,0.00,CLR,,0.00,WeatherDisplay:10.37,2013-10-11 15:18:00,
2013-10-11 11:23:00,83.0,67.2,29.98,ENE,73,7.0,7.0,59,0.00,CLR,,0.00,WeatherDisplay:10.37,2013-10-11 15:23:00,
2013-10-11 11:28:00,82.8,68.0,29.98,East,80,11.5,11.5,61,0.00,CLR,,0.00,WeatherDisplay:10.37,2013-10-11 15:28:00,
2013-10-11 11:33:00,82.7,69.3,29.98,NE,50,6.9,6.9,64,0.00,CLR,,0.00,WeatherDisplay:10.37,2013-10-11 15:33:00,
2013-10-11 11:38:00,83.0,68.6,29.98,NNE,22,10.4,10.4,62,0.00,CLR,,0.00,WeatherDisplay:10.37,2013-10-11 15:38:00,
2013-10-11 11:43:00,82.3,67.5,29.98,ENE,61,8.1,8.1,61,0.00,CLR,,0.00,WeatherDisplay:10.37,2013-10-11 15:43:00,
2013-10-11 11:48:00,82.3,68.4,29.98,NE,53,7.0,7.0,63,0.00,CLR,,0.00,WeatherDisplay:10.37,2013-10-11 15:48:00,
2013-10-11 11:53:00,82.8,67.5,29.98,NE,47,6.9,6.9,60,0.00,CLR,,0.00,WeatherDisplay:10.37,2013-10-11 15:53:00,
2013-10-11 11:58:00,83.3,67.0,29.99,NNE,14,6.9,6.9,58,0.00,CLR,,0.00,WeatherDisplay:10.37,2013-10-11 15:58:00,
2013-10-11 12:03:00,83.7,67.8,29.98,ENE,71,11.5,11.5,59,0.00,CLR,,0.00,WeatherDisplay:10.37,2013-10-11 16:03:00,
2013-10-11 12:08:00,83.3,67.5,29.99,NE,42,6.9,6.9,59,0.00,CLR,,0.00,WeatherDisplay:10.37,2013-10-11 16:08:00,
2013-10-11 12:13:00,83.4,68.5,29.98,NNE,28,10.4,10.4,61,0.00,CLR,,0.00,WeatherDisplay:10.37,2013-10-11 16:13:00,
2013-10-11 12:18:00,83.8,67.4,29.98,NE,40,5.8,5.8,58,0.00,CLR,,0.00,WeatherDisplay:10.37,2013-10-11 16:18:00,
2013-10-11 12:23:00,83.7,67.4,29.98,ENE,64,5.0,5.0,58,0.00,CLR,,0.00,WeatherDisplay:10.37,2013-10-11 16:23:00,
2013-10-11 12:28:00,83.4,67.1,29.98,North,355,10.4,10.4,58,0.00,CLR,,0.00,WeatherDisplay:10.37,2013-10-11 16:28:00,
2013-10-11 12:33:00,84.2,67.8,29.98,ENE,66,9.2,9.2,58,0.00,CLR,,0.00,WeatherDisplay:10.37,2013-10-11 16:33:00,
2013-10-11 12:38:00,84.5,67.6,29.98,NE,41,9.2,9.2,57,0.00,CLR,,0.00,WeatherDisplay:10.37,2013-10-11 16:38:00,
2013-10-11 12:43:00,84.7,68.3,29.98,ENE,68,4.6,4.6,58,0.00,CLR,,0.00,WeatherDisplay:10.37,2013-10-11 16:43:00,
2013-10-11 12:48:00,84.8,68.4,29.97,NNE,16,9.2,9.2,58,0.00,CLR,,0.00,WeatherDisplay:10.37,2013-10-11 16:48:00,
2013-10-11 12:53:00,85.0,68.6,29.97,North,355,10.4,10.4,58,0.00,CLR,,0.00,WeatherDisplay:10.37,2013-10-11 16:53:00,
2013-10-11 12:58:00,85.5,67.5,29.97,North,5,11.5,11.5,55,0.00,CLR,,0.00,WeatherDisplay:10.37,2013-10-11 16:58:00,
2013-10-11 13:03:00,85.4,68.4,29.97,ENE,59,6.9,6.9,57,0.00,CLR,,0.00,WeatherDisplay:10.37,2013-10-11 17:03:00,
2013-10-11 13:08:00,85.2,67.7,29.96,NE,39,6.9,6.9,56,0.00,CLR,,0.00,WeatherDisplay:10.37,2013-10-11 17:08:00,
2013-10-11 13:13:00,85.1,68.2,29.96,NE,43,5.8,5.8,57,0.00,CLR,,0.00,WeatherDisplay:10.37,2013-10-11 17:13:00,
2013-10-11 13:18:00,85.0,67.5,29.96,ENE,66,3.5,3.5,56,0.00,CLR,,0.00,WeatherDisplay:10.37,2013-10-11 17:18:00,
2013-10-11 13:23:00,85.3,67.8,29.95,NE,46,9.2,9.2,56,0.00,CLR,,0.00,WeatherDisplay:10.37,2013-10-11 17:23:00,
2013-10-11 13:28:00,85.1,67.1,29.95,NE,48,9.2,9.2,55,0.00,CLR,,0.00,WeatherDisplay:10.37,2013-10-11 17:28:00,
2013-10-11 13:33:00,84.7,67.3,29.95,North,5,11.5,11.5,56,0.00,CLR,,0.00,WeatherDisplay:10.37,2013-10-11 17:33:00,
2013-10-11 13:38:00,84.6,67.7,29.95,NE,42,5.8,5.8,57,0.00,CLR,,0.00,WeatherDisplay:10.37,2013-10-11 17:38:00,
2013-10-11 13:43:00,84.4,67.0,29.94,ENE,78,6.9,6.9,56,0.00,CLR,,0.00,WeatherDisplay:10.37,2013-10-11 17:43:00,
2013-10-11 13:48:00,84.1,67.2,29.94,ENE,71,10.4,10.4,57,0.00,CLR,,0.00,WeatherDisplay:10.37,2013-10-11 17:48:00,
2013-10-11 13:53:00,83.8,67.9,29.94,ENE,66,9.0,9.0,59,0.00,CLR,,0.00,WeatherDisplay:10.37,2013-10-11 17:53:00,
2013-10-11 13:58:00,84.2,67.3,29.94,East,83,11.5,11.5,57,0.00,CLR,,0.00,WeatherDisplay:10.37,2013-10-11 17:58:00,
2013-10-11 14:03:00,84.1,67.7,29.93,NE,40,9.0,9.0,58,0.00,CLR,,0.00,WeatherDisplay:10.37,2013-10-11 18:03:00,
2013-10-11 14:08:00,83.5,68.2,29.93,ENE,62,10.4,10.4,60,0.00,CLR,,0.00,WeatherDisplay:10.37,2013-10-11 18:08:00,
2013-10-11 14:13:00,83.5,68.2,29.93,NE,49,9.2,9.2,60,0.00,CLR,,0.00,WeatherDisplay:10.37,2013-10-11 18:13:00,
2013-10-11 14:18:00,84.4,68.5,29.93,NNE,24,5.8,5.8,59,0.00,CLR,,0.00,WeatherDisplay:10.37,2013-10-11 18:18:00,
2013-10-11 14:23:00,84.8,68.9,29.93,NE,56,11.5,11.5,59,0.00,CLR,,0.00,WeatherDisplay:10.37,2013-10-11 18:23:00,
2013-10-11 14:28:00,84.1,67.7,29.93,NNE,18,11.5,11.5,58,0.00,CLR,,0.00,WeatherDisplay:10.37,2013-10-11 18:28:00,
2013-10-11 14:33:00,83.6,67.8,29.93,NNE,29,9.2,9.2,59,0.00,CLR,,0.00,WeatherDisplay:10.37,2013-10-11 18:33:00,
2013-10-11 14:38:00,84.0,68.1,29.93,ENE,74,7.0,7.0,59,0.00,CLR,,0.00,WeatherDisplay:10.37,2013-10-11 18:38:00,
2013-10-11 14:43:00,83.8,67.9,29.93,NNE,32,9.2,9.2,59,0.00,CLR,,0.00,WeatherDisplay:10.37,2013-10-11 18:43:00,
2013-10-11 14:48:00,83.9,68.5,29.93,NE,52,11.5,11.5,60,0.00,CLR,,0.00,WeatherDisplay:10.37,2013-10-11 18:48:00,
2013-10-11 14:53:00,84.0,68.1,29.92,ENE,57,5.8,5.8,59,0.00,CLR,,0.00,WeatherDisplay:10.37,2013-10-11 18:53:00,
2013-10-11 14:58:00,83.9,67.5,29.92,ENE,73,13.8,13.8,58,0.00,CLR,,0.00,WeatherDisplay:10.37,2013-10-11 18:58:00,
2013-10-11 15:03:00,83.9,68.0,29.92,ENE,69,10.4,10.4,59,0.00,CLR,,0.00,WeatherDisplay:10.37,2013-10-11 19:03:00,
2013-10-11 15:08:00,83.9,68.0,29.92,North,10,11.5,11.5,59,0.00,CLR,,0.00,WeatherDisplay:10.37,2013-10-11 19:08:00,
2013-10-11 15:13:00,83.5,67.7,29.92,ENE,78,9.2,9.2,59,0.00,CLR,,0.00,WeatherDisplay:10.37,2013-10-11 19:13:00,
2013-10-11 15:18:00,83.5,66.7,29.92,ENE,60,9.2,9.2,57,0.00,CLR,,0.00,WeatherDisplay:10.37,2013-10-11 19:18:00,
2013-10-11 15:23:00,83.2,67.4,29.92,NE,42,12.7,12.7,59,0.00,CLR,,0.00,WeatherDisplay:10.37,2013-10-11 19:23:00,
2013-10-11 15:28:00,83.7,66.8,29.92,NNE,25,11.5,11.5,57,0.00,CLR,,0.00,WeatherDisplay:10.37,2013-10-11 19:28:00,
2013-10-11 15:33:00,83.6,67.3,29.93,East,83,10.4,10.4,58,0.00,CLR,,0.00,WeatherDisplay:10.37,2013-10-11 19:33:00,
2013-10-11 15:38:00,83.1,66.8,29.93,NNE,23,13.8,13.8,58,0.00,CLR,,0.00,WeatherDisplay:10.37,2013-10-11 19:38:00,
2013-10-11 15:43:00,83.0,66.7,29.92,East,84,11.5,11.5,58,0.00,CLR,,0.00,WeatherDisplay:10.37,2013-10-11 19:43:00,
2013-10-11 15:48:00,82.9,67.6,29.92,North,360,9.2,9.2,60,0.00,CLR,,0.00,WeatherDisplay:10.37,2013-10-11 19:48:00,
2013-10-11 15:53:00,83.5,67.7,29.92,ENE,67,11.5,11.5,59,0.00,CLR,,0.00,WeatherDisplay:10.37,2013-10-11 19:53:00,
2013-10-11 15:58:00,83.6,67.3,29.92,ENE,69,10.4,10.4,58,0.00,CLR,,0.00,WeatherDisplay:10.37,2013-10-11 19:58:00,
2013-10-11 16:03:00,83.4,68.1,29.92,NE,53,11.5,11.5,60,0.00,CLR,,0.00,WeatherDisplay:10.37,2013-10-11 20:03:00,
2013-10-11 16:08:00,82.9,67.1,29.92,ENE,74,10.4,10.4,59,0.00,CLR,,0.00,WeatherDisplay:10.37,2013-10-11 20:08:00,
2013-10-11 16:13:00,82.9,66.6,29.92,ENE,65,11.5,11.5,58,0.00,CLR,,0.00,WeatherDisplay:10.37,2013-10-11 20:13:00,
2013-10-11 16:18:00,83.0,67.2,29.92,East,99,11.5,11.5,59,0.00,CLR,,0.00,WeatherDisplay:10.37,2013-10-11 20:18:00,
2013-10-11 16:23:00,82.7,66.9,29.92,East,84,10.0,10.0,59,0.00,CLR,,0.00,WeatherDisplay:10.37,2013-10-11 20:23:00,
2013-10-11 16:28:00,82.1,65.9,29.92,ENE,75,12.7,12.7,58,0.00,CLR,,0.00,WeatherDisplay:10.37,2013-10-11 20:28:00,
2013-10-11 16:33:00,81.8,66.6,29.92,ENE,60,9.2,9.2,60,0.00,CLR,,0.00,WeatherDisplay:10.37,2013-10-11 20:33:00,
2013-10-11 16:38:00,81.7,66.0,29.92,ENE,74,13.0,13.0,59,0.00,CLR,,0.00,WeatherDisplay:10.37,2013-10-11 20:38:00,
2013-10-11 16:43:00,81.6,66.4,29.92,ENE,64,10.4,10.4,60,0.00,CLR,,0.00,WeatherDisplay:10.37,2013-10-11 20:43:00,
2013-10-11 16:48:00,81.5,66.8,29.92,East,82,13.8,13.8,61,0.00,CLR,,0.00,WeatherDisplay:10.37,2013-10-11 20:48:00,
2013-10-11 16:53:00,81.6,66.8,29.92,NE,42,9.2,9.2,61,0.00,CLR,,0.00,WeatherDisplay:10.37,2013-10-11 20:53:00,
2013-10-11 16:58:00,82.1,66.8,29.92,ENE,69,11.5,11.5,60,0.00,CLR,,0.00,WeatherDisplay:10.37,2013-10-11 20:58:00,
2013-10-11 17:03:00,82.0,66.3,29.92,NE,36,11.5,11.5,59,0.00,CLR,,0.00,WeatherDisplay:10.37,2013-10-11 21:03:00,
2013-10-11 17:08:00,81.9,66.6,29.92,ENE,58,6.9,6.9,60,0.00,CLR,,0.00,WeatherDisplay:10.37,2013-10-11 21:08:00,
2013-10-11 17:13:00,81.6,66.4,29.91,ENE,70,12.7,12.7,60,0.00,CLR,,0.00,WeatherDisplay:10.37,2013-10-11 21:13:00,
2013-10-11 17:18:00,81.4,66.7,29.91,ENE,71,10.4,10.4,61,0.00,CLR,,0.00,WeatherDisplay:10.37,2013-10-11 21:18:00,
2013-10-11 17:23:00,81.3,66.1,29.91,ENE,71,12.7,12.7,60,0.00,CLR,,0.00,WeatherDisplay:10.37,2013-10-11 21:23:00,
2013-10-11 17:28:00,81.3,66.1,29.92,ENE,66,11.5,11.5,60,0.00,CLR,,0.00,WeatherDisplay:10.37,2013-10-11 21:28:00,
2013-10-11 17:33:00,81.3,66.6,29.91,NE,44,11.5,11.5,61,0.00,CLR,,0.00,WeatherDisplay:10.37,2013-10-11 21:33:00,
2013-10-11 17:38:00,81.3,66.1,29.92,ENE,69,11.5,11.5,60,0.00,CLR,,0.00,WeatherDisplay:10.37,2013-10-11 21:38:00,
2013-10-11 17:43:00,81.1,66.4,29.91,ENE,73,10.4,10.4,61,0.00,CLR,,0.00,WeatherDisplay:10.37,2013-10-11 21:43:00,
2013-10-11 17:48:00,80.9,66.7,29.91,ENE,71,11.5,11.5,62,0.00,CLR,,0.00,WeatherDisplay:10.37,2013-10-11 21:48:00,
2013-10-11 17:53:00,80.7,66.5,29.91,ENE,68,11.5,11.5,62,0.00,CLR,,0.00,WeatherDisplay:10.37,2013-10-11 21:53:00,
2013-10-11 17:58:00,80.6,66.4,29.91,East,86,11.5,11.5,62,0.00,CLR,,0.00,WeatherDisplay:10.37,2013-10-11 21:58:00,
2013-10-11 18:03:00,80.5,66.7,29.92,ENE,61,11.5,11.5,63,0.00,CLR,,0.00,WeatherDisplay:10.37,2013-10-11 22:03:00,
2013-10-11 18:08:00,80.5,66.3,29.92,NE,53,11.5,11.5,62,0.00,CLR,,0.00,WeatherDisplay:10.37,2013-10-11 22:08:00,
2013-10-11 18:13:00,80.4,66.2,29.92,East,82,10.4,10.4,62,0.00,CLR,,0.00,WeatherDisplay:10.37,2013-10-11 22:13:00,
2013-10-11 18:18:00,80.2,65.5,29.92,ENE,75,10.4,10.4,61,0.00,CLR,,0.00,WeatherDisplay:10.37,2013-10-11 22:18:00,
2013-10-11 18:23:00,80.1,66.4,29.92,ENE,78,9.2,9.2,63,0.00,CLR,,0.00,WeatherDisplay:10.37,2013-10-11 22:23:00,
2013-10-11 18:28:00,80.0,66.7,29.92,ENE,65,6.0,6.0,64,0.00,CLR,,0.00,WeatherDisplay:10.37,2013-10-11 22:28:00,
2013-10-11 18:33:00,79.8,66.1,29.92,East,81,8.1,8.1,63,0.00,CLR,,0.00,WeatherDisplay:10.37,2013-10-11 22:33:00,
2013-10-11 18:38:00,79.6,66.3,29.92,East,80,9.2,9.2,64,0.00,CLR,,0.00,WeatherDisplay:10.37,2013-10-11 22:38:00,
2013-10-11 18:43:00,79.5,66.7,29.92,ENE,66,4.6,4.6,65,0.00,CLR,,0.00,WeatherDisplay:10.37,2013-10-11 22:43:00,
2013-10-11 18:48:00,79.2,66.4,29.92,ENE,76,9.0,9.0,65,0.00,CLR,,0.00,WeatherDisplay:10.37,2013-10-11 22:48:00,
2013-10-11 18:53:00,78.9,66.1,29.92,NE,55,6.0,6.0,65,0.00,CLR,,0.00,WeatherDisplay:10.37,2013-10-11 22:53:00,
2013-10-11 18:58:00,78.8,66.0,29.92,ENE,63,5.8,5.8,65,0.00,CLR,,0.00,WeatherDisplay:10.37,2013-10-11 22:58:00,
2013-10-11 19:03:00,78.7,66.4,29.92,ENE,69,4.0,4.0,66,0.00,CLR,,0.00,WeatherDisplay:10.37,2013-10-11 23:03:00,
2013-10-11 19:08:00,78.5,66.2,29.92,ENE,64,5.8,5.8,66,0.00,CLR,,0.00,WeatherDisplay:10.37,2013-10-11 23:08:00,
2013-10-11 19:13:00,78.3,66.9,29.93,East,80,4.6,4.6,68,0.00,CLR,,0.00,WeatherDisplay:10.37,2013-10-11 23:13:00,
2013-10-11 19:18:00,78.1,67.1,29.92,ENE,67,2.3,2.3,69,0.00,CLR,,0.00,WeatherDisplay:10.37,2013-10-11 23:18:00,
2013-10-11 19:23:00,77.9,66.9,29.92,ENE,65,4.0,4.0,69,0.00,CLR,,0.00,WeatherDisplay:10.37,2013-10-11 23:23:00,
2013-10-11 19:28:00,77.8,66.8,29.92,ENE,72,2.3,2.3,69,0.00,CLR,,0.00,WeatherDisplay:10.37,2013-10-11 23:28:00,
2013-10-11 19:33:00,77.7,66.3,29.92,ENE,65,3.5,3.5,68,0.00,CLR,,0.00,WeatherDisplay:10.37,2013-10-11 23:33:00,
2013-10-11 19:38:00,77.7,66.3,29.93,ENE,69,3.5,3.5,68,0.00,CLR,,0.00,WeatherDisplay:10.37,2013-10-11 23:38:00,
2013-10-11 19:43:00,77.6,66.6,29.93,ENE,78,3.5,3.5,69,0.00,CLR,,0.00,WeatherDisplay:10.37,2013-10-11 23:43:00,
2013-10-11 19:48:00,77.5,66.5,29.93,ENE,61,3.5,3.5,69,0.00,CLR,,0.00,WeatherDisplay:10.37,2013-10-11 23:48:00,
2013-10-11 19:53:00,77.5,66.1,29.93,ENE,59,3.5,3.5,68,0.00,CLR,,0.00,WeatherDisplay:10.37,2013-10-11 23:53:00,
2013-10-11 19:58:00,77.5,66.5,29.93,East,79,3.5,3.5,69,0.00,CLR,,0.00,WeatherDisplay:10.37,2013-10-11 23:58:00,
2013-10-11 20:03:00,77.4,66.4,29.93,ENE,69,4.6,4.6,69,0.00,CLR,,0.00,WeatherDisplay:10.37,2013-10-12 00:03:00,
2013-10-11 20:08:00,77.3,66.3,29.93,ENE,68,3.5,3.5,69,0.00,CLR,,0.00,WeatherDisplay:10.37,2013-10-12 00:08:00,
2013-10-11 20:13:00,77.2,66.2,29.94,ENE,70,3.5,3.5,69,0.00,CLR,,0.00,WeatherDisplay:10.37,2013-10-12 00:13:00,
2013-10-11 20:18:00,77.1,66.6,29.94,East,80,3.5,3.5,70,0.00,CLR,,0.00,WeatherDisplay:10.37,2013-10-12 00:18:00,
2013-10-11 20:23:00,77.2,66.7,29.94,East,87,2.3,2.3,70,0.00,CLR,,0.00,WeatherDisplay:10.37,2013-10-12 00:23:00,
2013-10-11 20:28:00,77.0,66.5,29.94,East,85,3.5,3.5,70,0.00,CLR,,0.00,WeatherDisplay:10.37,2013-10-12 00:28:00,
2013-10-11 20:33:00,77.0,66.9,29.94,East,82,3.0,3.0,71,0.00,CLR,,0.00,WeatherDisplay:10.37,2013-10-12 00:33:00,
2013-10-11 20:38:00,76.9,66.4,29.94,ENE,78,3.5,3.5,70,0.00,CLR,,0.00,WeatherDisplay:10.37,2013-10-12 00:38:00,
2013-10-11 20:43:00,76.9,66.8,29.94,ENE,78,2.3,2.3,71,0.00,CLR,,0.00,WeatherDisplay:10.37,2013-10-12 00:43:00,
2013-10-11 20:48:00,76.8,66.3,29.94,ENE,78,1.2,1.2,70,0.00,CLR,,0.00,WeatherDisplay:10.37,2013-10-12 00:48:00,
2013-10-11 20:53:00,76.7,66.2,29.94,ENE,74,2.0,2.0,70,0.00,CLR,,0.00,WeatherDisplay:10.37,2013-10-12 00:53:00,
2013-10-11 20:58:00,76.8,66.3,29.94,East,88,2.3,2.3,70,0.00,CLR,,0.00,WeatherDisplay:10.37,2013-10-12 00:58:00,
2013-10-11 21:03:00,76.7,66.6,29.94,ENE,78,2.3,2.3,71,0.00,CLR,,0.00,WeatherDisplay:10.37,2013-10-12 01:03:00,
2013-10-11 21:08:00,76.7,66.6,29.95,ENE,78,2.3,2.3,71,0.00,CLR,,0.00,WeatherDisplay:10.37,2013-10-12 01:08:00,
2013-10-11 21:13:00,76.6,66.5,29.95,ENE,78,1.2,0.0,71,0.00,CLR,,0.00,WeatherDisplay:10.37,2013-10-12 01:13:00,
2013-10-11 21:18:00,76.6,66.1,29.95,ENE,78,0.0,0.0,70,0.00,CLR,,0.00,WeatherDisplay:10.37,2013-10-12 01:18:00,
2013-10-11 21:23:00,76.5,66.4,29.95,East,90,2.3,2.3,71,0.00,CLR,,0.00,WeatherDisplay:10.37,2013-10-12 01:23:00,
2013-10-11 21:28:00,76.5,66.4,29.95,East,84,1.0,0.0,71,0.00,CLR,,0.00,WeatherDisplay:10.37,2013-10-12 01:28:00,
2013-10-11 21:33:00,76.4,66.7,29.95,East,84,1.2,1.2,72,0.00,CLR,,0.00,WeatherDisplay:10.37,2013-10-12 01:33:00,
2013-10-11 21:38:00,76.4,66.3,29.95,East,88,1.2,1.2,71,0.00,CLR,,0.00,WeatherDisplay:10.37,2013-10-12 01:38:00,
2013-10-11 21:43:00,76.4,66.7,29.95,East,89,1.2,1.2,72,0.00,CLR,,0.00,WeatherDisplay:10.37,2013-10-12 01:43:00,
2013-10-11 21:48:00,76.3,66.6,29.95,East,89,2.3,2.3,72,0.00,CLR,,0.00,WeatherDisplay:10.37,2013-10-12 01:48:00,
2013-10-11 21:53:00,76.3,66.2,29.95,East,89,1.2,1.2,71,0.00,CLR,,0.00,WeatherDisplay:10.37,2013-10-12 01:53:00,
2013-10-11 21:58:00,76.3,66.2,29.96,East,98,2.3,2.3,71,0.00,CLR,,0.00,WeatherDisplay:10.37,2013-10-12 01:58:00,
2013-10-11 22:03:00,76.3,66.2,29.96,East,98,1.2,1.2,71,0.00,CLR,,0.00,WeatherDisplay:10.37,2013-10-12 02:03:00,
2013-10-11 22:08:00,76.2,66.5,29.95,East,98,1.0,0.0,72,0.00,CLR,,0.00,WeatherDisplay:10.37,2013-10-12 02:08:00,
2013-10-11 22:13:00,76.1,66.0,29.95,East,98,1.2,1.2,71,0.00,CLR,,0.00,WeatherDisplay:10.37,2013-10-12 02:13:00,
2013-10-11 22:18:00,76.1,66.4,29.96,East,98,1.2,1.2,72,0.00,CLR,,0.00,WeatherDisplay:10.37,2013-10-12 02:18:00,
2013-10-11 22:23:00,76.1,66.4,29.96,East,98,1.2,1.2,72,0.00,CLR,,0.00,WeatherDisplay:10.37,2013-10-12 02:23:00,
2013-10-11 22:28:00,76.0,65.9,29.96,East,98,1.2,1.2,71,0.00,CLR,,0.00,WeatherDisplay:10.37,2013-10-12 02:28:00,
2013-10-11 22:33:00,76.0,65.9,29.96,East,98,1.2,1.2,71,0.00,CLR,,0.00,WeatherDisplay:10.37,2013-10-12 02:33:00,
2013-10-11 22:38:00,76.0,65.9,29.96,East,98,2.3,2.3,71,0.00,CLR,,0.00,WeatherDisplay:10.37,2013-10-12 02:38:00,
2013-10-11 22:43:00,76.1,66.0,29.96,East,98,2.3,2.3,71,0.00,CLR,,0.00,WeatherDisplay:10.37,2013-10-12 02:43:00,
2013-10-11 22:48:00,76.0,65.5,29.96,East,98,1.2,1.2,70,0.00,CLR,,0.00,WeatherDisplay:10.37,2013-10-12 02:48:00,
2013-10-11 22:53:00,76.0,65.9,29.96,East,98,2.3,0.0,71,0.00,CLR,,0.00,WeatherDisplay:10.37,2013-10-12 02:53:00,
2013-10-11 22:58:00,75.9,66.2,29.96,East,98,1.2,1.2,72,0.00,CLR,,0.00,WeatherDisplay:10.37,2013-10-12 02:58:00,
2013-10-11 23:03:00,75.8,66.1,29.96,East,98,2.3,2.3,72,0.00,CLR,,0.00,WeatherDisplay:10.37,2013-10-12 03:03:00,
2013-10-11 23:08:00,75.7,66.4,29.96,East,98,1.2,0.0,73,0.00,CLR,,0.00,WeatherDisplay:10.37,2013-10-12 03:08:00,
2013-10-11 23:13:00,75.6,65.9,29.96,East,98,1.2,1.2,72,0.00,CLR,,0.00,WeatherDisplay:10.37,2013-10-12 03:13:00,
2013-10-11 23:18:00,75.5,66.2,29.95,East,98,0.0,0.0,73,0.00,CLR,,0.00,WeatherDisplay:10.37,2013-10-12 03:18:00,
2013-10-11 23:23:00,75.5,66.6,29.95,East,98,0.0,0.0,74,0.00,CLR,,0.00,WeatherDisplay:10.37,2013-10-12 03:23:00,
2013-10-11 23:28:00,75.3,66.4,29.95,East,98,2.3,2.3,74,0.00,CLR,,0.00,WeatherDisplay:10.37,2013-10-12 03:28:00,
2013-10-11 23:33:00,75.2,65.6,29.95,East,98,1.2,1.2,72,0.00,CLR,,0.00,WeatherDisplay:10.37,2013-10-12 03:33:00,
2013-10-11 23:38:00,75.2,65.6,29.95,East,98,2.3,2.3,72,0.00,CLR,,0.00,WeatherDisplay:10.37,2013-10-12 03:38:00,
2013-10-11 23:43:00,75.2,65.6,29.95,East,98,1.2,1.2,72,0.00,CLR,,0.00,WeatherDisplay:10.37,2013-10-12 03:43:00,
2013-10-11 23:48:00,75.2,65.9,29.95,East,98,0.0,0.0,73,0.00,CLR,,0.00,WeatherDisplay:10.37,2013-10-12 03:48:00,
2013-10-11 23:53:00,75.0,66.1,29.95,East,98,1.2,1.2,74,0.00,CLR,,0.00,WeatherDisplay:10.37,2013-10-12 03:53:00,
2013-10-11 23:58:00,74.9,65.7,29.95,East,98,0.0,0.0,73,0.00,CLR,,0.00,WeatherDisplay:10.37,2013-10-12 03:58:00,